ASA326 KSEA-KTPA

Flight info

Callsign ASA326
Flight time N/A
Altitude 33000
Route MONTN2 SEA NORMY MODDA STEVS Q150 LEZLE SLATE/N0446F350 KD69W FRACA KM33I MGM ACORI MAATY5
Aircraft B738/M-SDE2E3FGHIRWXY/LB1

Departure

Time 2026-05-06 13:17
Airport Seattle–Tacoma International Airport (KSEA)

Arrival

Time N/A
Airport Tampa International Airport (KTPA)
Time Latitude Longitude Altitude Speed Heading
2026-05-06 12:48 47.44977 -122.30334 408 ft 0 kts 189°
2026-05-06 13:09 47.44993 -122.30330 409 ft 3 kts 189°
2026-05-06 13:10 47.45012 -122.30323 405 ft 3 kts 194°
2026-05-06 13:10 47.45032 -122.30317 408 ft 2 kts 211°
2026-05-06 13:10 47.45042 -122.30303 412 ft 0 kts 265°
2026-05-06 13:11 47.45042 -122.30304 412 ft 1 kts 265°
2026-05-06 13:12 47.45043 -122.30384 408 ft 12 kts 271°
2026-05-06 13:12 47.45045 -122.30503 413 ft 11 kts 269°
2026-05-06 13:12 47.45063 -122.30610 413 ft 11 kts 320°
2026-05-06 13:12 47.45137 -122.30627 407 ft 11 kts 360°
2026-05-06 13:13 47.45212 -122.30627 411 ft 12 kts
2026-05-06 13:13 47.45319 -122.30625 415 ft 18 kts
2026-05-06 13:13 47.45464 -122.30623 421 ft 22 kts
2026-05-06 13:13 47.45616 -122.30621 431 ft 22 kts
2026-05-06 13:14 47.45765 -122.30621 432 ft 21 kts
2026-05-06 13:14 47.45906 -122.30619 431 ft 21 kts
2026-05-06 13:14 47.46047 -122.30618 431 ft 20 kts
2026-05-06 13:14 47.46183 -122.30616 434 ft 19 kts
2026-05-06 13:15 47.46314 -122.30615 433 ft 13 kts
2026-05-06 13:15 47.46378 -122.30683 433 ft 13 kts 281°
2026-05-06 13:15 47.46329 -122.30775 429 ft 12 kts 185°
2026-05-06 13:15 47.46251 -122.30778 428 ft 23 kts 181°
2026-05-06 13:16 47.46171 -122.30779 432 ft 1 kts 180°
2026-05-06 13:16 47.46154 -122.30779 427 ft 15 kts 180°
2026-05-06 13:16 47.45798 -122.30780 425 ft 86 kts 181°
2026-05-06 13:16 47.44982 -122.30788 404 ft 147 kts 180°
2026-05-06 13:17 47.43830 -122.30791 698 ft 170 kts 180°
2026-05-06 13:17 47.42676 -122.30772 1416 ft 170 kts 181°
2026-05-06 13:17 47.41485 -122.30804 2110 ft 176 kts 181°
2026-05-06 13:17 47.40225 -122.30826 2602 ft 193 kts 181°
2026-05-06 13:18 47.38790 -122.30862 2823 ft 217 kts 182°
2026-05-06 13:18 47.37217 -122.30913 3045 ft 237 kts 182°
2026-05-06 13:18 47.35528 -122.30966 3416 ft 252 kts 182°
2026-05-06 13:18 47.33763 -122.30596 3938 ft 264 kts 153°
2026-05-06 13:19 47.32449 -122.28758 4701 ft 265 kts 116°
2026-05-06 13:19 47.32041 -122.26121 5398 ft 268 kts 88°
2026-05-06 13:19 47.32130 -122.23371 6139 ft 272 kts 85°
2026-05-06 13:19 47.32274 -122.20568 6833 ft 277 kts 84°
2026-05-06 13:20 47.32455 -122.17724 7508 ft 281 kts 83°
2026-05-06 13:20 47.32654 -122.14845 8237 ft 284 kts 83°
2026-05-06 13:20 47.32937 -122.11940 8893 ft 288 kts 73°
2026-05-06 13:20 47.33581 -122.09139 9570 ft 291 kts 67°
2026-05-06 13:21 47.34335 -122.06347 10266 ft 294 kts 66°
2026-05-06 13:21 47.35100 -122.03532 10872 ft 301 kts 66°
2026-05-06 13:21 47.35874 -122.00627 11073 ft 322 kts 66°
2026-05-06 13:21 47.36713 -121.97391 11248 ft 343 kts 67°
2026-05-06 13:22 47.37562 -121.94050 11403 ft 363 kts 67°
2026-05-06 13:22 47.38463 -121.90458 11550 ft 382 kts 68°
2026-05-06 13:22 47.39396 -121.86703 11675 ft 399 kts 68°
2026-05-06 13:22 47.40364 -121.82790 11956 ft 409 kts 68°
2026-05-06 13:23 47.41345 -121.78822 12447 ft 413 kts 68°
2026-05-06 13:23 47.42304 -121.74827 12985 ft 417 kts 71°
2026-05-06 13:23 47.42908 -121.70614 13473 ft 424 kts 81°
2026-05-06 13:23 47.43000 -121.66218 14004 ft 429 kts 91°
2026-05-06 13:24 47.42845 -121.61791 14395 ft 434 kts 91°
2026-05-06 13:24 47.42716 -121.57330 14907 ft 436 kts 90°
2026-05-06 13:24 47.42597 -121.52842 15385 ft 439 kts 92°
2026-05-06 13:24 47.42142 -121.48353 15744 ft 447 kts 102°
2026-05-06 13:25 47.41342 -121.43895 16210 ft 449 kts 104°
2026-05-06 13:25 47.40510 -121.39443 16701 ft 451 kts 104°
2026-05-06 13:25 47.39673 -121.34964 17119 ft 455 kts 104°
2026-05-06 13:25 47.38837 -121.30452 17452 ft 458 kts 103°
2026-05-06 13:26 47.38008 -121.25892 17777 ft 462 kts 103°
2026-05-06 13:26 47.37185 -121.21308 18207 ft 464 kts 103°
2026-05-06 13:26 47.36356 -121.16697 18680 ft 465 kts 103°
2026-05-06 13:26 47.35530 -121.12120 19064 ft 467 kts 103°
2026-05-06 13:27 47.34691 -121.07483 19404 ft 471 kts 103°
2026-05-06 13:27 47.33841 -121.02789 19736 ft 475 kts 103°
2026-05-06 13:27 47.32985 -120.98075 20141 ft 477 kts 103°
2026-05-06 13:27 47.32131 -120.93383 20545 ft 478 kts 103°
2026-05-06 13:28 47.31261 -120.88629 20888 ft 481 kts 103°
2026-05-06 13:28 47.30390 -120.83867 21236 ft 483 kts 103°
2026-05-06 13:28 47.29511 -120.79074 21575 ft 485 kts 103°
2026-05-06 13:28 47.28628 -120.74275 21918 ft 487 kts 103°
2026-05-06 13:29 47.27737 -120.69440 22233 ft 489 kts 103°
2026-05-06 13:29 47.26842 -120.64602 22531 ft 492 kts 103°
2026-05-06 13:29 47.25940 -120.59732 22827 ft 494 kts 103°
2026-05-06 13:29 47.25033 -120.54850 23120 ft 496 kts 103°
2026-05-06 13:30 47.24153 -120.49990 23403 ft 497 kts 102°
2026-05-06 13:30 47.23333 -120.45046 23657 ft 499 kts 101°
2026-05-06 13:30 47.22530 -120.40000 23916 ft 501 kts 101°
2026-05-06 13:30 47.21747 -120.35074 24187 ft 503 kts 101°
2026-05-06 13:31 47.20939 -120.30058 24420 ft 505 kts 101°
2026-05-06 13:31 47.20129 -120.25107 24645 ft 507 kts 101°
2026-05-06 13:31 47.19295 -120.20060 24884 ft 508 kts 101°
2026-05-06 13:31 47.18454 -120.15005 25146 ft 509 kts 101°
2026-05-06 13:32 47.17609 -120.09939 25373 ft 511 kts 101°
2026-05-06 13:32 47.16705 -120.04871 25572 ft 514 kts 105°
2026-05-06 13:32 47.15372 -119.99985 25757 ft 518 kts 114°
2026-05-06 13:32 47.13754 -119.95230 25973 ft 520 kts 115°
2026-05-06 13:33 47.12103 -119.90495 26126 ft 522 kts 115°
2026-05-06 13:33 47.10446 -119.85754 26309 ft 522 kts 115°
2026-05-06 13:33 47.08802 -119.81016 26542 ft 521 kts 114°
2026-05-06 13:33 47.07171 -119.76277 26806 ft 519 kts 114°
2026-05-06 13:34 47.05556 -119.71552 27076 ft 518 kts 114°
2026-05-06 13:34 47.03948 -119.66829 27327 ft 518 kts 114°
2026-05-06 13:34 47.02343 -119.62111 27585 ft 517 kts 114°
2026-05-06 13:34 47.00737 -119.57400 27828 ft 516 kts 114°
2026-05-06 13:35 46.99133 -119.52700 28047 ft 516 kts 114°
2026-05-06 13:35 46.97525 -119.47998 28286 ft 516 kts 114°
2026-05-06 13:35 46.95918 -119.43308 28537 ft 515 kts 114°
2026-05-06 13:35 46.94308 -119.38626 28813 ft 514 kts 114°
2026-05-06 13:36 46.92703 -119.33965 29040 ft 514 kts 114°
2026-05-06 13:36 46.91091 -119.29292 29292 ft 513 kts 114°
2026-05-06 13:36 46.89484 -119.24642 29565 ft 512 kts 114°
2026-05-06 13:36 46.87876 -119.19994 29813 ft 512 kts 114°
2026-05-06 13:37 46.86269 -119.15359 30041 ft 512 kts 114°
2026-05-06 13:37 46.84660 -119.10725 30277 ft 511 kts 114°
2026-05-06 13:37 46.83052 -119.06105 30540 ft 510 kts 114°
2026-05-06 13:37 46.81446 -119.01503 30786 ft 509 kts 114°
2026-05-06 13:38 46.79837 -118.96894 30973 ft 509 kts 114°
2026-05-06 13:38 46.78247 -118.92349 31140 ft 510 kts 114°
2026-05-06 13:38 46.76613 -118.87685 31350 ft 510 kts 114°
2026-05-06 13:38 46.75001 -118.83096 31600 ft 508 kts 114°
2026-05-06 13:39 46.73388 -118.78511 31822 ft 508 kts 114°
2026-05-06 13:39 46.71772 -118.73925 32011 ft 508 kts 114°
2026-05-06 13:39 46.70181 -118.69415 32175 ft 508 kts 114°
2026-05-06 13:39 46.68542 -118.64779 32369 ft 508 kts 114°
2026-05-06 13:40 46.66925 -118.60214 32583 ft 507 kts 114°
2026-05-06 13:40 46.65331 -118.55720 32788 ft 506 kts 114°
2026-05-06 13:40 46.63715 -118.51175 32952 ft 506 kts 113°
2026-05-06 13:41 46.60463 -118.42044 32977 ft 508 kts 114°
2026-05-06 13:41 46.57211 -118.32942 33001 ft 507 kts 113°
2026-05-06 13:42 46.53956 -118.23869 32999 ft 506 kts 113°
2026-05-06 13:42 46.51248 -118.16346 33009 ft 506 kts 113°
2026-05-06 13:43 46.47981 -118.07295 33012 ft 506 kts 113°
2026-05-06 13:43 46.44711 -117.98266 33007 ft 506 kts 113°
2026-05-06 13:44 46.41432 -117.89244 33017 ft 506 kts 113°
2026-05-06 13:44 46.38148 -117.80234 33012 ft 506 kts 113°
2026-05-06 13:45 46.34850 -117.71223 33017 ft 506 kts 113°
2026-05-06 13:45 46.29902 -117.57747 33027 ft 506 kts 113°
2026-05-06 13:46 46.26582 -117.48749 33022 ft 507 kts 114°
2026-05-06 13:46 46.23258 -117.39771 33019 ft 507 kts 114°
2026-05-06 13:47 46.19931 -117.30806 33023 ft 506 kts 113°
2026-05-06 13:47 46.16604 -117.21868 33023 ft 506 kts 113°
2026-05-06 13:48 46.13369 -117.12851 33029 ft 503 kts 108°
2026-05-06 13:48 46.10725 -117.03535 33022 ft 501 kts 105°
2026-05-06 13:49 46.08207 -116.94203 33049 ft 500 kts 105°
2026-05-06 13:49 46.05643 -116.84877 33037 ft 502 kts 106°
2026-05-06 13:50 46.03023 -116.75561 33048 ft 502 kts 106°
2026-05-06 13:50 46.00383 -116.66273 33050 ft 501 kts 106°
2026-05-06 13:51 45.97741 -116.57024 33058 ft 501 kts 106°
2026-05-06 13:51 45.95107 -116.47824 33068 ft 501 kts 105°
2026-05-06 13:52 45.92454 -116.38576 33059 ft 500 kts 105°
2026-05-06 13:52 45.89801 -116.29373 33078 ft 498 kts 105°
2026-05-06 13:53 45.87146 -116.20192 33081 ft 499 kts 106°
2026-05-06 13:53 45.84476 -116.10991 33071 ft 499 kts 106°
2026-05-06 13:54 45.81799 -116.01807 33084 ft 499 kts 106°
2026-05-06 13:54 45.79113 -115.92625 33076 ft 500 kts 106°
2026-05-06 13:55 45.76416 -115.83441 33106 ft 500 kts 106°
2026-05-06 13:55 45.73715 -115.74273 33090 ft 500 kts 106°
2026-05-06 13:56 45.71003 -115.65103 33093 ft 500 kts 106°
2026-05-06 13:56 45.68287 -115.55955 33101 ft 500 kts 106°
2026-05-06 13:57 45.65564 -115.46811 33105 ft 499 kts 106°
2026-05-06 13:57 45.62839 -115.37699 33115 ft 499 kts 106°
2026-05-06 13:58 45.60107 -115.28599 33113 ft 498 kts 106°
2026-05-06 13:58 45.57367 -115.19508 33113 ft 498 kts 105°
2026-05-06 13:59 45.54627 -115.10454 33118 ft 497 kts 105°
2026-05-06 13:59 45.51886 -115.01392 33122 ft 498 kts 105°
2026-05-06 14:00 45.49133 -114.92344 33107 ft 498 kts 105°
2026-05-06 14:00 45.46364 -114.83292 33139 ft 498 kts 105°
2026-05-06 14:01 45.43587 -114.74240 33142 ft 499 kts 105°
2026-05-06 14:01 45.40797 -114.65198 33170 ft 499 kts 105°
2026-05-06 14:02 45.38005 -114.56154 33141 ft 500 kts 105°
2026-05-06 14:02 45.35207 -114.47103 33146 ft 501 kts 105°
2026-05-06 14:03 45.32389 -114.38037 33148 ft 502 kts 105°
2026-05-06 14:03 45.29561 -114.28982 33136 ft 501 kts 105°
2026-05-06 14:04 45.26730 -114.19948 33178 ft 501 kts 105°
2026-05-06 14:04 45.23883 -114.10894 33142 ft 502 kts 106°
2026-05-06 14:05 45.21057 -114.01932 33150 ft 501 kts 106°
2026-05-06 14:05 45.18183 -113.92854 33148 ft 501 kts 105°
2026-05-06 14:06 45.15327 -113.83861 33166 ft 500 kts 105°
2026-05-06 14:06 45.12490 -113.74960 33145 ft 500 kts 105°
2026-05-06 14:07 45.09624 -113.66000 33147 ft 499 kts 105°
2026-05-06 14:07 45.06753 -113.57054 33161 ft 499 kts 105°
2026-05-06 14:08 45.03874 -113.48113 33171 ft 499 kts 105°
2026-05-06 14:08 45.00993 -113.39199 33179 ft 498 kts 105°
2026-05-06 14:09 44.98106 -113.30292 33186 ft 499 kts 105°
2026-05-06 14:09 44.95210 -113.21388 33180 ft 499 kts 105°
2026-05-06 14:10 44.92306 -113.12497 33175 ft 498 kts 105°
2026-05-06 14:10 44.89403 -113.03637 33180 ft 498 kts 105°
2026-05-06 14:11 44.86493 -112.94778 33156 ft 497 kts 105°
2026-05-06 14:11 44.83583 -112.85955 33174 ft 497 kts 105°
2026-05-06 14:12 44.80661 -112.77120 33164 ft 498 kts 105°
2026-05-06 14:12 44.77729 -112.68292 33162 ft 498 kts 105°
2026-05-06 14:13 44.74797 -112.59490 33169 ft 497 kts 105°
2026-05-06 14:13 44.71860 -112.50705 33176 ft 496 kts 105°
2026-05-06 14:14 44.68934 -112.41974 33186 ft 497 kts 105°
2026-05-06 14:14 44.65975 -112.33175 33187 ft 498 kts 104°
2026-05-06 14:15 44.63011 -112.24392 33183 ft 497 kts 105°
2026-05-06 14:15 44.60043 -112.15633 33192 ft 497 kts 105°
2026-05-06 14:16 44.57064 -112.06867 33200 ft 498 kts 104°
2026-05-06 14:16 44.54080 -111.98108 33208 ft 498 kts 104°
2026-05-06 14:17 44.51086 -111.89347 33192 ft 498 kts 104°
2026-05-06 14:17 44.48086 -111.80613 33190 ft 497 kts 104°
2026-05-06 14:18 44.45087 -111.71900 33184 ft 497 kts 104°
2026-05-06 14:18 44.42086 -111.63206 33184 ft 496 kts 104°
2026-05-06 14:19 44.39075 -111.54512 33188 ft 496 kts 104°
2026-05-06 14:19 44.36059 -111.45835 33188 ft 496 kts 105°
2026-05-06 14:20 44.33041 -111.37178 33192 ft 496 kts 105°
2026-05-06 14:20 44.30012 -111.28516 33193 ft 497 kts 105°
2026-05-06 14:21 44.26974 -111.19856 33202 ft 497 kts 105°
2026-05-06 14:21 44.23921 -111.11187 33189 ft 498 kts 105°
2026-05-06 14:22 44.20878 -111.02566 33191 ft 498 kts 105°
2026-05-06 14:22 44.17808 -110.93898 33183 ft 498 kts 105°
2026-05-06 14:23 44.14757 -110.85314 33179 ft 498 kts 105°
2026-05-06 14:23 44.11674 -110.76666 33175 ft 498 kts 105°
2026-05-06 14:24 44.08577 -110.68005 33183 ft 497 kts 106°
2026-05-06 14:24 44.05511 -110.59450 33166 ft 497 kts 106°
2026-05-06 14:25 44.02428 -110.50860 33178 ft 495 kts 105°
2026-05-06 14:25 43.99442 -110.42264 33186 ft 494 kts 105°
2026-05-06 14:26 43.96481 -110.33646 33190 ft 494 kts 105°
2026-05-06 14:26 43.93512 -110.25042 33191 ft 495 kts 105°
2026-05-06 14:27 43.90522 -110.16446 33172 ft 495 kts 105°
2026-05-06 14:27 43.87517 -110.07860 33179 ft 496 kts 105°
2026-05-06 14:28 43.84500 -109.99260 33152 ft 496 kts 105°
2026-05-06 14:28 43.82001 -109.92152 33173 ft 494 kts 105°
2026-05-06 14:29 43.78973 -109.83599 33173 ft 495 kts 105°
2026-05-06 14:29 43.75948 -109.75039 33165 ft 495 kts 106°
2026-05-06 14:30 43.72918 -109.66490 33138 ft 496 kts 106°
2026-05-06 14:30 43.69873 -109.57935 33149 ft 495 kts 106°
2026-05-06 14:31 43.66825 -109.49404 33151 ft 495 kts 107°
2026-05-06 14:31 43.63770 -109.40877 33149 ft 496 kts 107°
2026-05-06 14:32 43.60705 -109.32351 33147 ft 496 kts 107°
2026-05-06 14:32 43.57634 -109.23832 33170 ft 496 kts 108°
2026-05-06 14:33 43.54559 -109.15325 33158 ft 496 kts 108°
2026-05-06 14:33 43.51474 -109.06817 33171 ft 496 kts 108°
2026-05-06 14:34 43.48385 -108.98324 33168 ft 496 kts 108°
2026-05-06 14:34 43.45286 -108.89835 33185 ft 496 kts 109°
2026-05-06 14:35 43.42179 -108.81347 33176 ft 497 kts 109°
2026-05-06 14:35 43.39063 -108.72863 33184 ft 497 kts 109°
2026-05-06 14:36 43.35945 -108.64398 33177 ft 497 kts 109°
2026-05-06 14:36 43.32816 -108.55927 33170 ft 497 kts 110°
2026-05-06 14:37 43.29687 -108.47475 33175 ft 497 kts 110°
2026-05-06 14:37 43.26566 -108.39077 33177 ft 497 kts 110°
2026-05-06 14:38 43.23422 -108.30640 33175 ft 497 kts 110°
2026-05-06 14:38 43.20267 -108.22204 33170 ft 497 kts 110°
2026-05-06 14:39 43.17103 -108.13768 33177 ft 497 kts 110°
2026-05-06 14:39 43.13951 -108.05391 33172 ft 497 kts 111°
2026-05-06 14:40 43.10784 -107.96996 33171 ft 497 kts 111°
2026-05-06 14:40 43.07600 -107.88576 33185 ft 498 kts 112°
2026-05-06 14:41 43.04415 -107.80185 33167 ft 498 kts 113°
2026-05-06 14:41 43.01220 -107.71792 33174 ft 498 kts 113°
2026-05-06 14:42 42.98011 -107.63383 33176 ft 498 kts 113°
2026-05-06 14:42 42.94804 -107.55001 33163 ft 499 kts 114°
2026-05-06 14:43 42.91603 -107.46667 33166 ft 499 kts 114°
2026-05-06 14:43 42.88356 -107.38234 33168 ft 500 kts 114°
2026-05-06 14:44 42.85134 -107.29896 33167 ft 500 kts 114°
2026-05-06 14:45 42.80266 -107.17336 33163 ft 499 kts 115°
2026-05-06 14:45 42.77014 -107.08981 33171 ft 499 kts 115°
2026-05-06 14:46 42.73756 -107.00631 33166 ft 500 kts 115°
2026-05-06 14:46 42.70492 -106.92289 33155 ft 500 kts 115°
2026-05-06 14:47 42.67222 -106.83960 33169 ft 499 kts 116°
2026-05-06 14:47 42.63949 -106.75644 33168 ft 499 kts 116°
2026-05-06 14:48 42.60665 -106.67321 33168 ft 500 kts 116°
2026-05-06 14:48 42.57373 -106.59009 33165 ft 500 kts 116°
2026-05-06 14:49 42.54070 -106.50690 33169 ft 501 kts 117°
2026-05-06 14:49 42.50777 -106.42422 33161 ft 502 kts 117°
2026-05-06 14:50 42.47459 -106.34114 33168 ft 502 kts 117°
2026-05-06 14:50 42.44123 -106.25784 33168 ft 503 kts 118°
2026-05-06 14:51 42.40777 -106.17454 33512 ft 502 kts 118°
2026-05-06 14:51 42.39109 -106.13311 33771 ft 501 kts 118°
2026-05-06 14:51 42.37445 -106.09180 34011 ft 500 kts 118°
2026-05-06 14:51 42.35775 -106.05042 34214 ft 501 kts 118°
2026-05-06 14:52 42.34101 -106.00901 34380 ft 502 kts 118°
2026-05-06 14:52 42.32430 -105.96774 34574 ft 502 kts 118°
2026-05-06 14:52 42.30754 -105.92642 34797 ft 500 kts 118°
2026-05-06 14:52 42.29080 -105.88519 35015 ft 500 kts 118°
2026-05-06 14:53 42.27405 -105.84398 35150 ft 500 kts 119°
2026-05-06 14:53 42.24037 -105.76128 35165 ft 503 kts 119°
2026-05-06 14:54 42.20667 -105.67879 35165 ft 501 kts 119°
2026-05-06 14:54 42.17299 -105.59657 35166 ft 500 kts 119°
2026-05-06 14:55 42.13937 -105.51474 35167 ft 499 kts 119°
2026-05-06 14:55 42.10567 -105.43297 35167 ft 499 kts 119°
2026-05-06 14:56 42.07215 -105.35185 35176 ft 499 kts 119°
2026-05-06 14:56 42.03837 -105.27029 35174 ft 499 kts 120°
2026-05-06 14:57 42.00450 -105.18875 35180 ft 499 kts 120°
2026-05-06 14:57 41.97070 -105.10761 35170 ft 501 kts 121°
2026-05-06 14:58 41.93663 -105.02605 35189 ft 501 kts 121°
2026-05-06 14:58 41.90238 -104.94427 35185 ft 502 kts 121°
2026-05-06 14:59 41.86804 -104.86251 35184 ft 503 kts 122°
2026-05-06 14:59 41.83359 -104.78075 35186 ft 504 kts 122°
2026-05-06 15:00 41.79901 -104.69887 35184 ft 505 kts 122°
2026-05-06 15:00 41.76434 -104.61700 35184 ft 505 kts 122°
2026-05-06 15:01 41.72968 -104.53538 35184 ft 505 kts 122°
2026-05-06 15:01 41.69508 -104.45413 35174 ft 505 kts 122°
2026-05-06 15:02 41.66024 -104.37254 35175 ft 505 kts 122°
2026-05-06 15:02 41.62536 -104.29106 35178 ft 505 kts 122°
2026-05-06 15:03 41.59042 -104.20966 35174 ft 505 kts 122°
2026-05-06 15:03 41.55548 -104.12848 35175 ft 504 kts 123°
2026-05-06 15:04 41.52045 -104.04732 35184 ft 504 kts 123°
2026-05-06 15:04 41.48561 -103.96618 35185 ft 505 kts 122°
2026-05-06 15:05 41.45178 -103.88398 35185 ft 505 kts 122°
2026-05-06 15:05 41.41825 -103.80164 35185 ft 506 kts 122°
2026-05-06 15:06 41.38454 -103.71947 35184 ft 506 kts 122°
2026-05-06 15:06 41.35053 -103.63720 35185 ft 507 kts 122°
2026-05-06 15:07 41.31643 -103.55505 35184 ft 507 kts 123°
2026-05-06 15:07 41.28222 -103.47289 35187 ft 508 kts 123°
2026-05-06 15:08 41.24796 -103.39081 35187 ft 508 kts 123°
2026-05-06 15:08 41.21361 -103.30870 35188 ft 509 kts 123°
2026-05-06 15:09 41.17918 -103.22662 35182 ft 508 kts 122°
2026-05-06 15:09 41.14475 -103.14476 35172 ft 508 kts 123°
2026-05-06 15:10 41.11028 -103.06305 35175 ft 508 kts 123°
2026-05-06 15:10 41.07576 -102.98145 35174 ft 507 kts 123°
2026-05-06 15:11 41.04123 -102.90005 35171 ft 507 kts 123°
2026-05-06 15:11 41.00667 -102.81879 35175 ft 507 kts 123°
2026-05-06 15:12 40.97198 -102.73744 35178 ft 507 kts 124°
2026-05-06 15:12 40.93723 -102.65620 35176 ft 508 kts 124°
2026-05-06 15:13 40.90231 -102.57480 35177 ft 509 kts 124°
2026-05-06 15:13 40.86733 -102.49339 35177 ft 510 kts 124°
2026-05-06 15:14 40.83224 -102.41198 35166 ft 510 kts 124°
2026-05-06 15:14 40.79707 -102.33058 35168 ft 511 kts 125°
2026-05-06 15:15 40.76178 -102.24918 35163 ft 511 kts 125°
2026-05-06 15:15 40.72640 -102.16775 35174 ft 511 kts 125°
2026-05-06 15:16 40.69108 -102.08670 35180 ft 512 kts 125°
2026-05-06 15:16 40.66147 -102.01894 35175 ft 512 kts 126°
2026-05-06 15:17 40.62584 -101.93758 35171 ft 513 kts 126°
2026-05-06 15:17 40.59010 -101.85617 35176 ft 514 kts 126°
2026-05-06 15:18 40.54848 -101.76164 35180 ft 515 kts 126°
2026-05-06 15:18 40.51833 -101.69333 35171 ft 515 kts 126°
2026-05-06 15:19 40.48233 -101.61199 35178 ft 515 kts 126°
2026-05-06 15:19 40.44620 -101.53057 35177 ft 516 kts 127°
2026-05-06 15:20 40.41029 -101.44985 35172 ft 516 kts 127°
2026-05-06 15:20 40.37407 -101.36865 35178 ft 516 kts 127°
2026-05-06 15:21 40.33779 -101.28759 35184 ft 515 kts 127°
2026-05-06 15:21 40.30151 -101.20668 35184 ft 515 kts 127°
2026-05-06 15:22 40.26512 -101.12571 35194 ft 515 kts 127°
2026-05-06 15:22 40.22868 -101.04484 35196 ft 516 kts 127°
2026-05-06 15:23 40.19210 -100.96392 35202 ft 517 kts 127°
2026-05-06 15:23 40.15548 -100.88312 35206 ft 517 kts 128°
2026-05-06 15:24 40.11869 -100.80216 35196 ft 518 kts 128°
2026-05-06 15:24 40.08179 -100.72117 35188 ft 519 kts 128°
2026-05-06 15:25 40.04480 -100.64018 35194 ft 520 kts 128°
2026-05-06 15:25 40.00773 -100.55923 35194 ft 520 kts 129°
2026-05-06 15:26 39.97074 -100.47866 35189 ft 522 kts 129°
2026-05-06 15:26 39.93341 -100.39757 35183 ft 522 kts 129°
2026-05-06 15:27 39.89599 -100.31646 35186 ft 523 kts 129°
2026-05-06 15:27 39.85845 -100.23533 35182 ft 523 kts 129°
2026-05-06 15:28 39.82086 -100.15431 35190 ft 523 kts 129°
2026-05-06 15:28 39.78322 -100.07339 35194 ft 523 kts 130°
2026-05-06 15:29 39.74552 -99.99250 35195 ft 523 kts 130°
2026-05-06 15:29 39.70776 -99.91178 35193 ft 523 kts 130°
2026-05-06 15:30 39.67014 -99.83153 35190 ft 523 kts 130°
2026-05-06 15:30 39.63225 -99.75088 35196 ft 523 kts 130°
2026-05-06 15:31 39.59428 -99.67029 35200 ft 523 kts 131°
2026-05-06 15:31 39.55627 -99.58988 35203 ft 524 kts 131°
2026-05-06 15:32 39.49911 -99.46921 35203 ft 525 kts 131°
2026-05-06 15:32 39.46078 -99.38858 35204 ft 526 kts 132°
2026-05-06 15:33 39.42239 -99.30803 35196 ft 526 kts 132°
2026-05-06 15:33 39.38391 -99.22755 35204 ft 527 kts 132°
2026-05-06 15:34 39.34556 -99.14751 35202 ft 527 kts 133°
2026-05-06 15:34 39.30664 -99.06644 35206 ft 528 kts 133°
2026-05-06 15:35 39.26783 -98.98583 35202 ft 529 kts 133°
2026-05-06 15:35 39.22921 -98.90579 35206 ft 530 kts 133°
2026-05-06 15:36 39.19024 -98.82525 35203 ft 530 kts 134°
2026-05-06 15:36 39.15107 -98.74452 35203 ft 530 kts 134°
2026-05-06 15:37 39.11191 -98.66401 35201 ft 531 kts 134°
2026-05-06 15:37 39.07267 -98.58352 35208 ft 531 kts 134°
2026-05-06 15:38 39.03330 -98.50299 35212 ft 531 kts 134°
2026-05-06 15:38 38.99390 -98.42258 35212 ft 532 kts 134°
2026-05-06 15:39 38.95443 -98.34222 35220 ft 531 kts 135°
2026-05-06 15:39 38.91494 -98.26207 35224 ft 531 kts 135°
2026-05-06 15:40 38.87531 -98.18181 35229 ft 531 kts 135°
2026-05-06 15:40 38.83565 -98.10182 35232 ft 531 kts 135°
2026-05-06 15:41 38.79601 -98.02190 35225 ft 532 kts 135°
2026-05-06 15:41 38.75628 -97.94194 35215 ft 532 kts 136°
2026-05-06 15:42 38.71643 -97.86201 35210 ft 532 kts 136°
2026-05-06 15:42 38.67650 -97.78215 35212 ft 533 kts 136°
2026-05-06 15:43 38.63649 -97.70233 35203 ft 533 kts 136°
2026-05-06 15:43 38.59639 -97.62252 35200 ft 534 kts 136°
2026-05-06 15:44 38.55616 -97.54265 35208 ft 534 kts 136°
2026-05-06 15:44 38.51618 -97.46347 35202 ft 534 kts 136°
2026-05-06 15:45 38.47581 -97.38371 35206 ft 535 kts 136°
2026-05-06 15:45 38.43534 -97.30396 35202 ft 535 kts 136°
2026-05-06 15:46 38.39487 -97.22437 35202 ft 535 kts 136°
2026-05-06 15:46 38.35436 -97.14489 35191 ft 535 kts 137°
2026-05-06 15:47 38.31384 -97.06560 35194 ft 534 kts 137°
2026-05-06 15:47 38.27327 -96.98639 35188 ft 534 kts 137°
2026-05-06 15:48 38.23273 -96.90742 35181 ft 533 kts 137°
2026-05-06 15:48 38.19220 -96.82869 35190 ft 533 kts 137°
2026-05-06 15:49 38.15140 -96.74980 35192 ft 533 kts 137°
2026-05-06 15:49 38.11043 -96.67112 35182 ft 534 kts 137°
2026-05-06 15:50 38.06933 -96.59242 35177 ft 535 kts 137°
2026-05-06 15:50 38.02818 -96.51376 35165 ft 536 kts 137°
2026-05-06 15:51 37.98693 -96.43502 35183 ft 536 kts 137°
2026-05-06 15:51 37.94558 -96.35623 35194 ft 537 kts 138°
2026-05-06 15:52 37.90411 -96.27748 35186 ft 538 kts 138°
2026-05-06 15:52 37.86259 -96.19879 35185 ft 538 kts 138°
2026-05-06 15:53 37.82086 -96.11993 35183 ft 539 kts 138°